Location: Beaver Brook Station
(42.3793°N, 71.2203°W)
Time: 02:04:54
(UTC+00:00)

Cosmos 44 Rocket - Pass Details

Date: 29 October 2020
Orbit: 641 x 748 km, 65.1° (Epoch: 05 December)

Event Time Altitude Azimuth Distance (km) Brightness Sun altitude
Rises 23:06:45 0° 201° (SSW) 2,968 6.9 -16.3°
Reaches altitude 10° 23:09:02 10° 198° (SSW) 2,074 6.0 -16.7°
Maximum altitude 23:13:40 61° 119° (ESE) 768 3.2 -17.6°
Enters shadow 23:16:16 26° 47° (NE) 1,336 4.3 -18.0°
